Location: Taylor Dark Sky Site
(39.1017°N, 87.9564°W)
Time: 19:22:01
(UTC-06:00)

Amateur Radio Satellites - All Passes

Search period start: 06 February 2016 18:52
Search period end: 07 February 2016 18:52
Location: Taylor Dark Sky Site, 39.1017°N, 87.9564°W

Satellite Date Start Highest point End Downlink Frequencies (MHz)
Time Altitude Azimuth
PCSat 06 Feb 19:08:05 19:11:33 17° 45° (NE) 19:14:58 145.827
Oscar 11 06 Feb 19:15:02 19:16:50 12° 64° (ENE) 19:18:38 145.826/435.025
STRAND 1 06 Feb 19:19:20 19:24:31 78° 286° (WNW) 19:29:39 437.568
O/OREOS (USA 219) 06 Feb 19:25:21 19:28:47 21° 259° (W) 19:32:13 437.305
RS-15 06 Feb 19:27:48 19:38:59 40° 42° (NE) 19:50:19 29.354- 29.394
CUTE 1.7 + AOD 2 06 Feb 19:35:08 19:39:19 72° 258° (WSW) 19:43:33 437.475
COMPASS 1 06 Feb 19:40:30 19:44:37 71° 76° (ENE) 19:48:46 437.405
AIST 2 06 Feb 19:43:17 19:47:27 86° 301° (WNW) 19:51:39 435.215
SEEDS 06 Feb 19:48:04 19:52:11 68° 259° (W) 19:56:22 437.485
AO-85 06 Feb 19:51:37 19:56:47 71° 57° (ENE) 20:01:28 145.980
CINEMA 3 06 Feb 19:52:19 19:56:59 57° 259° (W) 20:01:29 145.822/145.860
ZACube-1 06 Feb 19:59:25 20:03:04 29° 71° (ENE) 20:06:41 437.345
PRISM 06 Feb 20:07:18 20:11:28 65° 285° (WNW) 20:15:35 437.425
FUNcube-1 06 Feb 20:10:09 20:14:01 36° 72° (ENE) 20:17:52 145.935
DOVE 4 06 Feb 20:10:18 20:13:25 16° 268° (W) 20:16:28 437.250
AAUSAT CUBESAT 2 06 Feb 20:12:49 20:16:51 58° 260° (W) 20:20:58 437.432
DELFI C3 06 Feb 20:20:40 20:24:14 33° 71° (ENE) 20:27:50 145.870
CANX-2 06 Feb 20:20:59 20:24:00 19° 266° (W) 20:27:03 2200.000
CUBEBUG 2 06 Feb 20:24:01 20:28:25 71° 258° (WSW) 20:32:42 437.445
Cosmos 2499 06 Feb 20:25:08 20:33:04 41° 73° (ENE) 20:40:25 435.465 / 435.565
GONETS M04 06 Feb 20:26:32 20:35:23 89° 265° (W) 20:44:14
HO-68 06 Feb 20:30:25 20:36:33 30° 264° (W) 20:42:44 435.675
UWE-3 06 Feb 20:32:32 20:36:51 80° 257° (WSW) 20:41:06 435.000/436.395/437.385
Oscar 11 06 Feb 20:48:14 20:52:27 57° 260° (W) 20:56:43 145.826/435.025
HUMSAT D 06 Feb 20:49:20 20:52:53 29° 71° (ENE) 20:56:27 437.325/437.525
PCSat 06 Feb 20:50:08 20:55:36 80° 243° (WSW) 21:01:00 145.827
ISS 06 Feb 21:12:03 21:13:13 11° 13° (NNE) 21:14:24 145.825
50 SAT 06 Feb 21:17:54 21:19:34 13° 66° (ENE) 21:21:14 437.505
AIST 2 06 Feb 21:25:30 21:26:36 11° 319° (NW) 21:27:43 435.215
UNISAT 6 06 Feb 21:30:42 21:34:02 21° 95° (E) 21:37:23 437.425
AO-85 06 Feb 21:34:20 21:36:31 13° 255° (WSW) 21:38:36 145.980
ZACube-1 06 Feb 21:36:04 21:39:21 22° 265° (W) 21:42:37 437.345
VELOX 1 06 Feb 21:36:28 21:39:51 22° 67° (ENE) 21:43:15 145.980
RS-15 06 Feb 21:40:18 21:52:22 70° 245° (WSW) 22:04:32 29.354- 29.394
FUNcube-1 06 Feb 21:47:36 21:50:24 17° 267° (W) 21:53:10 145.935
AISAT 06 Feb 21:51:46 21:55:46 32° 70° (ENE) 21:59:45 437.250
AIST 1 06 Feb 21:52:09 21:56:31 71° 82° (E) 22:00:49
DELFI C3 06 Feb 21:56:42 21:59:15 16° 267° (W) 22:01:49 145.870
ESTCUBE 1 06 Feb 21:59:10 22:03:24 41° 71° (ENE) 22:07:40 437.505/2401.250
ANTELSAT 06 Feb 22:15:03 22:19:21 69° 101° (E) 22:23:44 437.575/2403.000
Cosmos 2499 06 Feb 22:18:26 22:26:05 40° 274° (W) 22:33:13 435.465 / 435.565
CUBEBUG 1 06 Feb 22:21:26 22:25:44 53° 74° (ENE) 22:30:05 437.445
TIGRISAT 06 Feb 22:23:11 22:27:30 81° 102° (ESE) 22:31:53 435.000
UKube-1 06 Feb 22:23:54 22:28:12 66° 74° (ENE) 22:32:31 .
HUMSAT D 06 Feb 22:25:34 22:28:33 20° 266° (W) 22:31:34 437.325/437.525
POLYITAN 1 06 Feb 22:25:56 22:29:05 20° 94° (E) 22:32:12 437.675
GONETS M04 06 Feb 22:25:57 22:30:52 17° 283° (WNW) 22:35:49
QB50P2 06 Feb 22:26:42 22:29:57 21° 95° (E) 22:33:11 145.880/145.840
DX 1 06 Feb 22:29:31 22:33:54 90° 290° (WNW) 22:38:19 434.975-435.025
SPROUT 06 Feb 22:39:54 22:43:37 29° 70° (ENE) 22:47:20 437.525
ISS 06 Feb 22:47:21 22:50:25 37° 32° (NNE) 22:53:28 145.825
BUGSAT 1 06 Feb 22:49:10 22:51:48 17° 94° (E) 22:54:23 437.445
50 SAT 06 Feb 22:49:45 22:53:14 39° 261° (W) 22:56:45 437.505
POPSAT HIP 1 06 Feb 22:56:46 23:00:49 45° 99° (E) 23:04:50 437.405
TISAT 1 06 Feb 23:03:08 23:06:12 20° 67° (ENE) 23:09:16 437.305
NANOSAT C BR1 06 Feb 23:03:40 23:07:46 53° 100° (E) 23:11:52 145.865
DUCHIFAT 1 06 Feb 23:06:41 23:10:48 55° 100° (E) 23:14:53 145.980
UNISAT 6 06 Feb 23:06:58 23:10:46 31° 290° (WNW) 23:14:37 437.425
QB50P1 06 Feb 23:09:40 23:13:51 66° 102° (ESE) 23:18:01 145.935-145.965
VELOX 1 06 Feb 23:12:03 23:16:06 34° 262° (W) 23:20:11 145.980
AISAT 06 Feb 23:28:48 23:32:16 22° 265° (W) 23:35:45 437.250
ESTCUBE 1 06 Feb 23:37:22 23:40:23 17° 267° (W) 23:43:24 437.505/2401.250
BEESAT 06 Feb 23:46:49 23:48:39 12° 61° (ENE) 23:50:30 436.000
ANTELSAT 06 Feb 23:54:32 23:55:31 11° 297° (WNW) 23:56:32 437.575/2403.000
RS-15 06 Feb 23:56:56 00:02:33 14° 265° (W) 00:08:11 29.354- 29.394
CUBEBUG 1 07 Feb 00:00:16 00:02:20 13° 269° (W) 00:04:24 437.445
POLYITAN 1 07 Feb 00:01:14 00:04:56 30° 290° (WNW) 00:08:36 437.675
QB50P2 07 Feb 00:02:07 00:05:46 29° 290° (WNW) 00:09:24 145.880/145.840
CUSAT 1 07 Feb 00:11:49 00:15:54 15° 79° (E) 00:20:04 437.405
SPROUT 07 Feb 00:16:10 00:19:34 23° 265° (W) 00:22:59 437.525
BUGSAT 1 07 Feb 00:23:37 00:27:17 34° 289° (WNW) 00:30:55 437.445
ISS 07 Feb 00:24:08 00:26:43 22° 228° (SW) 00:29:17 145.825
POPSAT HIP 1 07 Feb 00:33:52 00:36:13 15° 295° (WNW) 00:38:34 437.405
SWISSCUBE 07 Feb 00:35:38 00:40:05 41° 71° (ENE) 00:44:34 437.505
TISAT 1 07 Feb 00:37:49 00:41:38 33° 262° (W) 00:45:29 437.305
NANOSAT C BR1 07 Feb 00:41:13 00:43:03 13° 296° (WNW) 00:44:53 145.865
DUCHIFAT 1 07 Feb 00:44:20 00:46:01 12° 296° (WNW) 00:47:43 145.980
QB50P1 07 Feb 00:48:14 00:49:04 11° 297° (WNW) 00:49:54 145.935-145.965
Oscar 19 07 Feb 01:00:55 01:05:54 49° 100° (E) 01:10:51 437.125/150
Gurwin Techsat 1B 07 Feb 01:05:20 01:09:12 20° 93° (E) 01:13:03 435.225
ITUPSAT 1 07 Feb 01:10:16 01:15:02 85° 75° (ENE) 01:19:50 437.325
Cosmos 2491 07 Feb 01:16:17 01:23:45 30° 70° (ENE) 01:31:12 435.465 / 435.565
PHONESAT 2.4 07 Feb 01:20:15 01:22:48 21° 150° (SSE) 01:25:22 2401.200-2431.200
BEESAT 07 Feb 01:21:04 01:25:48 73° 258° (WSW) 01:30:35 436.000
JAS-2 07 Feb 01:30:18 01:36:02 61° 101° (E) 01:41:14 435.910
CUSAT 1 07 Feb 01:49:13 01:56:53 79° 96° (E) 02:05:04 437.405
MOZHAYETS 4 07 Feb 01:50:48 01:52:14 11° 62° (ENE) 01:53:41
DANDE 07 Feb 01:54:43 02:01:45 53° 91° (E) 02:09:50 436.750
ITAMSAT 1 07 Feb 02:02:22 02:07:12 36° 98° (E) 02:11:59 435.822/435.867
YUBILEINY 07 Feb 02:07:01 02:13:56 27° 82° (E) 02:20:53 435.215
STARS 07 Feb 02:11:04 02:14:47 27° 69° (ENE) 02:18:30 437.465
SWISSCUBE 07 Feb 02:14:40 02:18:02 19° 266° (W) 02:21:27 437.505
BEESAT 3 07 Feb 02:18:18 02:22:07 44° 55° (NE) 02:25:52 437.485
KKS-1 07 Feb 02:18:21 02:22:45 62° 74° (ENE) 02:27:11 437.445
AO-7 07 Feb 02:30:26 02:36:44 23° 94° (E) 02:42:58 29.400- 29.500
BEESAT 2 07 Feb 02:36:27 02:40:18 44° 55° (NE) 02:44:05 435.950
Oscar 19 07 Feb 02:41:14 02:44:50 20° 296° (WNW) 02:48:24 437.125/150
Gurwin Techsat 1B 07 Feb 02:44:16 02:49:22 48° 289° (WNW) 02:54:27 435.225
PHONESAT 2.4 07 Feb 02:56:32 02:59:49 81° 166° (SSE) 03:03:05 2401.200-2431.200
Cosmos 2491 07 Feb 03:12:31 03:20:59 57° 270° (W) 03:29:28 435.465 / 435.565
JAS-2 07 Feb 03:16:49 03:20:25 17° 301° (WNW) 03:23:51 435.910
MOZHAYETS 4 07 Feb 03:24:15 03:28:47 72° 259° (W) 03:33:22
M-CUBED/EXP-1 PRIME 07 Feb 03:28:26 03:31:05 21° 102° (ESE) 03:33:50 437.505
CUSAT 1 07 Feb 03:34:00 03:40:00 23° 295° (WNW) 03:46:12 437.405
HORYU 2 07 Feb 03:38:04 03:41:47 26° 96° (E) 03:45:29 437.375
DANDE 07 Feb 03:38:22 03:45:03 34° 292° (WNW) 03:52:31 436.750
AUBIESAT-1 07 Feb 03:41:02 03:43:56 25° 103° (ESE) 03:46:57 437.475
ITAMSAT 1 07 Feb 03:42:09 03:46:29 27° 294° (WNW) 03:50:47 435.822/435.867
STARS 07 Feb 03:47:25 03:51:05 25° 264° (W) 03:54:46 437.465
Cosmos 2504 07 Feb 03:50:22 03:57:01 26° 81° (E) 04:03:54 435.465 / 435.565
CUBESAT XI-V 07 Feb 03:56:43 04:00:32 25° 68° (ENE) 04:04:22 437.345
BEESAT 3 07 Feb 03:57:19 03:59:28 14° 251° (WSW) 04:01:36 437.485
KKS-1 07 Feb 03:58:16 03:59:42 11° 269° (W) 04:01:08 437.445
YUBILEINY 07 Feb 04:01:23 04:10:01 62° 281° (W) 04:18:47 435.215
AIST 2 07 Feb 04:05:55 04:09:51 41° 54° (NE) 04:13:45 435.215
BEESAT 2 07 Feb 04:15:37 04:17:48 14° 251° (WSW) 04:19:59 435.950
AO-7 07 Feb 04:21:50 04:30:08 72° 291° (WNW) 04:38:22 29.400- 29.500
PHONESAT 2.4 07 Feb 04:33:55 04:37:11 66° 2° (N) 04:40:27 2401.200-2431.200
CUTE-I 07 Feb 04:57:20 05:00:08 14° 91° (E) 05:02:56 437.470
STRAND 1 07 Feb 04:57:26 05:00:30 16° 62° (ENE) 05:03:35 437.568
M-CUBED/EXP-1 PRIME 07 Feb 05:03:13 05:05:39 19° 295° (WNW) 05:08:10 437.505
SO-50 07 Feb 05:04:33 05:09:17 52° 116° (ESE) 05:14:06 436.795
Cubesat XI-IV 07 Feb 05:09:14 05:12:59 19° 93° (E) 05:16:43 437.490
HORYU 2 07 Feb 05:14:32 05:18:17 27° 291° (WNW) 05:22:02 437.375
AUBIESAT-1 07 Feb 05:16:07 05:18:22 17° 296° (WNW) 05:20:41 437.475
LilacSat-2 07 Feb 05:16:43 05:18:49 14° 93° (E) 05:20:55 437.200
CUBESAT XI-V 07 Feb 05:33:38 05:37:46 31° 264° (W) 05:41:57 437.345
Cosmos 2504 07 Feb 05:41:13 05:49:36 65° 281° (W) 05:58:27 435.465 / 435.565
AIST 2 07 Feb 05:45:23 05:48:00 16° 250° (WSW) 05:50:37 435.215
YUBILEINY 07 Feb 06:06:54 06:08:53 11° 303° (WNW) 06:10:53 435.215
PHONESAT 2.4 07 Feb 06:11:15 06:14:30 63° 199° (SSW) 06:17:44 2401.200-2431.200
AO-7 07 Feb 06:16:57 06:21:27 16° 311° (NW) 06:25:57 29.400- 29.500
DOVE 4 07 Feb 06:32:35 06:34:46 14° 91° (E) 06:36:55 437.250
STRAND 1 07 Feb 06:34:07 06:39:09 61° 259° (W) 06:44:13 437.568
GOMX 1 07 Feb 06:34:20 06:38:19 31° 96° (E) 06:42:06 467.674
CUTE-I 07 Feb 06:35:18 06:40:38 68° 286° (WNW) 06:45:58 437.470
SO-50 07 Feb 06:46:15 06:50:05 22° 314° (NW) 06:53:57 436.795
Cubesat XI-IV 07 Feb 06:48:07 06:53:19 52° 289° (WNW) 06:58:31 437.490
LilacSat-2 07 Feb 06:49:49 06:53:16 34° 288° (WNW) 06:56:41 437.200
BRITE-PL 07 Feb 06:50:01 06:54:54 81° 284° (WNW) 06:59:22 437.365/2234.400
PRISM 07 Feb 06:55:22 06:59:30 75° 74° (ENE) 07:03:41 437.425
CUTE 1.7 + AOD 2 07 Feb 07:21:54 07:25:09 21° 94° (E) 07:28:24 437.475
COMPASS 1 07 Feb 07:26:31 07:28:18 12° 91° (E) 07:30:06 437.405
GONETS M04 07 Feb 07:32:39 07:38:36 21° 80° (E) 07:44:33
SEEDS 07 Feb 07:33:47 07:37:03 21° 94° (E) 07:40:18 437.485
Cosmos 2504 07 Feb 07:41:47 07:44:57 12° 302° (WNW) 07:48:11 435.465 / 435.565
CINEMA 3 07 Feb 07:48:28 07:52:13 32° 97° (E) 07:55:58 145.822/145.860
PHONESAT 2.4 07 Feb 07:49:28 07:51:23 15° 213° (SSW) 07:53:18 2401.200-2431.200
O/OREOS (USA 219) 07 Feb 07:56:21 08:00:39 50° 107° (ESE) 08:05:00 437.305
AAUSAT CUBESAT 2 07 Feb 07:56:50 08:00:12 23° 95° (E) 08:03:33 437.432
HO-68 07 Feb 07:57:56 08:05:02 57° 102° (ESE) 08:12:04 435.675
CANX-2 07 Feb 08:05:36 08:09:55 78° 102° (ESE) 08:14:12 2200.000
DOVE 4 07 Feb 08:08:42 08:12:47 43° 288° (WNW) 08:16:43 437.250
GOMX 1 07 Feb 08:12:49 08:16:13 21° 293° (WNW) 08:19:30 467.674
CUBEBUG 2 07 Feb 08:16:25 08:19:48 24° 96° (E) 08:23:13 437.445
UWE-3 07 Feb 08:23:53 08:27:04 21° 95° (E) 08:30:16 435.000/436.395/437.385
UNISAT 6 07 Feb 08:29:16 08:32:07 17° 66° (ENE) 08:34:56 437.425
Oscar 11 07 Feb 08:36:52 08:40:34 27° 96° (E) 08:44:15 145.826/435.025
CUTE 1.7 + AOD 2 07 Feb 08:57:15 09:01:02 31° 289° (WNW) 09:04:48 437.475
Cosmos 2499 07 Feb 08:59:21 09:06:53 35° 85° (E) 09:14:38 435.465 / 435.565
COMPASS 1 07 Feb 09:00:03 09:04:09 50° 286° (WNW) 09:08:14 437.405
SEEDS 07 Feb 09:09:03 09:12:46 30° 289° (WNW) 09:16:29 437.485
ANTELSAT 07 Feb 09:12:46 09:16:59 51° 74° (ENE) 09:21:10 437.575/2403.000
POLYITAN 1 07 Feb 09:18:36 09:20:54 14° 65° (ENE) 09:23:12 437.675
QB50P2 07 Feb 09:19:14 09:21:42 15° 65° (ENE) 09:24:09 145.880/145.840
TIGRISAT 07 Feb 09:20:39 09:24:56 60° 75° (ENE) 09:29:10 435.000
ZACube-1 07 Feb 09:24:08 09:28:20 73° 101° (ESE) 09:32:35 437.345
GONETS M04 07 Feb 09:25:44 09:34:24 76° 278° (W) 09:43:09
CINEMA 3 07 Feb 09:26:16 09:29:09 19° 293° (WNW) 09:32:02 145.822/145.860
AAUSAT CUBESAT 2 07 Feb 09:32:07 09:35:40 27° 290° (WNW) 09:39:13 437.432
DELFI C3 07 Feb 09:34:07 09:38:09 67° 101° (E) 09:42:10 145.870
FUNcube-1 07 Feb 09:34:48 09:39:01 88° 281° (WNW) 09:43:16 145.935
O/OREOS (USA 219) 07 Feb 09:37:34 09:40:21 16° 304° (NW) 09:43:10 437.305
BUGSAT 1 07 Feb 09:39:20 09:40:47 12° 64° (ENE) 09:42:15 437.445
HO-68 07 Feb 09:46:25 09:52:17 28° 299° (WNW) 09:58:08 435.675
POPSAT HIP 1 07 Feb 09:48:22 09:52:03 29° 70° (ENE) 09:55:44 437.405
PCSat 07 Feb 09:50:01 09:53:00 15° 104° (ESE) 09:56:01 145.827
CUBEBUG 2 07 Feb 09:52:56 09:56:23 26° 290° (WNW) 09:59:52 437.445
RS-15 07 Feb 09:54:21 10:01:41 21° 99° (E) 10:09:12 29.354- 29.394
NANOSAT C BR1 07 Feb 09:54:48 09:58:38 34° 71° (ENE) 10:02:27 145.865
DUCHIFAT 1 07 Feb 09:57:34 10:01:24 35° 71° (ENE) 10:05:14 145.980
UWE-3 07 Feb 09:59:54 10:03:33 30° 289° (WNW) 10:07:14 435.000/436.395/437.385
QB50P1 07 Feb 10:00:56 10:04:56 41° 72° (ENE) 10:08:56 145.935-145.965
AO-85 07 Feb 10:04:18 10:09:01 34° 112° (ESE) 10:13:56 145.980
UNISAT 6 07 Feb 10:04:27 10:08:32 39° 262° (W) 10:12:36 437.425
HUMSAT D 07 Feb 10:08:42 10:12:51 67° 101° (ESE) 10:17:01 437.325/437.525
JUGNU 07 Feb 10:10:29 10:11:02 10° 175° (S) 10:11:37 437.505
Oscar 11 07 Feb 10:13:03 10:16:35 25° 291° (WNW) 10:20:07 145.826/435.025
CUBEBUG 1 07 Feb 10:14:12 10:14:58 10° 90° (E) 10:15:44 437.445
UKube-1 07 Feb 10:14:30 10:16:01 12° 91° (E) 10:17:33 .
AIST 1 07 Feb 10:20:04 10:24:14 44° 92° (E) 10:28:26
DX 1 07 Feb 10:20:04 10:22:53 17° 93° (E) 10:25:40 434.975-435.025
50 SAT 07 Feb 10:22:56 10:25:42 19° 95° (E) 10:28:28 437.505
Cosmos 2499 07 Feb 10:51:20 10:59:39 51° 284° (WNW) 11:08:16 435.465 / 435.565
ANTELSAT 07 Feb 10:52:05 10:53:59 13° 268° (W) 10:55:53 437.575/2403.000
POLYITAN 1 07 Feb 10:52:13 10:56:19 47° 260° (W) 11:00:25 437.675
QB50P2 07 Feb 10:53:04 10:57:08 45° 261° (W) 11:01:13 145.880/145.840
TIGRISAT 07 Feb 11:01:00 11:01:59 11° 269° (W) 11:02:57 435.000
VELOX 1 07 Feb 11:02:58 11:07:15 47° 100° (E) 11:11:30 145.980
BUGSAT 1 07 Feb 11:11:30 11:15:40 60° 259° (W) 11:19:50 437.445
AISAT 07 Feb 11:19:01 11:23:26 77° 102° (ESE) 11:27:49 437.250
POPSAT HIP 1 07 Feb 11:24:34 11:27:50 21° 265° (W) 11:31:07 437.405
GONETS M04 07 Feb 11:28:38 11:32:50 14° 300° (WNW) 11:37:03
ESTCUBE 1 07 Feb 11:29:10 11:33:43 76° 284° (WNW) 11:38:14 437.505/2401.250
PCSat 07 Feb 11:30:23 11:35:46 68° 300° (WNW) 11:41:12 145.827
NANOSAT C BR1 07 Feb 11:31:28 11:34:27 18° 266° (W) 11:37:26 145.865
DUCHIFAT 1 07 Feb 11:34:17 11:37:12 18° 266° (W) 11:40:07 145.980
QB50P1 07 Feb 11:38:23 11:40:53 15° 267° (W) 11:43:24 145.935-145.965
JAS-2 07 Feb 11:39:51 11:46:17 30° 65° (ENE) 11:52:19 435.910
AO-85 07 Feb 11:44:35 11:49:31 36° 310° (NW) 11:54:36 145.980
CUBEBUG 1 07 Feb 11:47:20 11:51:40 63° 285° (WNW) 11:55:57 437.445
HUMSAT D 07 Feb 11:47:32 11:47:56 10° 297° (WNW) 11:48:19 437.325/437.525
UKube-1 07 Feb 11:48:10 11:52:25 56° 287° (WNW) 11:56:38 .
DX 1 07 Feb 11:55:09 11:59:15 40° 288° (WNW) 12:03:17 434.975-435.025
50 SAT 07 Feb 11:56:31 11:59:43 26° 290° (WNW) 12:02:55 437.505
AIST 1 07 Feb 11:59:32 12:02:04 15° 289° (WNW) 12:04:37
RS-15 07 Feb 12:01:09 12:12:16 89° 123° (ESE) 12:24:02 29.354- 29.394
SPROUT 07 Feb 12:02:22 12:06:37 66° 102° (ESE) 12:10:50 437.525
Oscar 19 07 Feb 12:16:26 12:21:34 65° 74° (ENE) 12:26:43 437.125/150
YUBILEINY 07 Feb 12:20:10 12:22:53 12° 57° (ENE) 12:25:35 435.215
TISAT 1 07 Feb 12:22:41 12:26:35 38° 98° (E) 12:30:28 437.305
Gurwin Techsat 1B 07 Feb 12:25:09 12:29:40 29° 67° (ENE) 12:34:12 435.225
CUSAT 1 07 Feb 12:29:36 12:35:39 49° 74° (ENE) 12:40:12 437.405
DANDE 07 Feb 12:38:22 12:45:08 38° 70° (ENE) 12:50:29 436.750
SWISSCUBE 07 Feb 12:39:15 12:40:47 11° 90° (E) 12:42:18 437.505
VELOX 1 07 Feb 12:40:42 12:43:20 16° 295° (WNW) 12:45:57 145.980
AISAT 07 Feb 12:59:02 12:59:16 10° 299° (WNW) 12:59:29 437.250
ITUPSAT 1 07 Feb 13:12:33 13:16:25 24° 95° (E) 13:20:17 437.325
PCSat 07 Feb 13:18:11 13:20:12 12° 320° (NW) 13:22:13 145.827
ITAMSAT 1 07 Feb 13:19:09 13:24:07 49° 71° (ENE) 13:29:08 435.822/435.867
BEESAT 07 Feb 13:22:38 13:26:52 31° 97° (E) 13:31:06 436.000
JAS-2 07 Feb 13:23:18 13:30:55 56° 260° (W) 13:38:03 435.910
AO-7 07 Feb 13:28:12 13:35:16 32° 58° (ENE) 13:42:18 29.400- 29.500
SRMSAT 07 Feb 13:28:15 13:29:41 11° 182° (S) 13:31:09 437.500
SO-50 07 Feb 13:37:23 13:41:49 35° 51° (NE) 13:46:07 436.795
SPROUT 07 Feb 13:40:56 13:42:01 11° 297° (WNW) 13:43:07 437.525
Oscar 19 07 Feb 13:58:38 14:01:18 14° 269° (W) 14:03:59 437.125/150
TISAT 1 07 Feb 13:59:16 14:01:57 17° 294° (WNW) 14:04:38 437.305
Gurwin Techsat 1B 07 Feb 14:04:44 14:09:29 33° 263° (W) 14:14:17 435.225
KKS-1 07 Feb 14:12:23 14:14:20 13° 91° (E) 14:16:16 437.445
YUBILEINY 07 Feb 14:12:51 14:21:39 65° 79° (E) 14:30:22 435.215
CUSAT 1 07 Feb 14:13:14 14:17:05 18° 280° (W) 14:20:21 437.405
SWISSCUBE 07 Feb 14:14:14 14:19:02 70° 286° (WNW) 14:23:48 437.505
M-CUBED/EXP-1 PRIME 07 Feb 14:14:42 14:17:50 26° 67° (ENE) 14:20:48 437.505
Cosmos 2491 07 Feb 14:16:18 14:23:56 36° 85° (E) 14:31:34 435.465 / 435.565
RS-15 07 Feb 14:16:41 14:26:24 31° 326° (NW) 14:36:37 29.354- 29.394
DANDE 07 Feb 14:21:38 14:27:56 34° 274° (W) 14:32:58 436.750
AUBIESAT-1 07 Feb 14:26:53 14:30:07 29° 67° (ENE) 14:33:13 437.475
HORYU 2 07 Feb 14:35:28 14:38:50 22° 67° (ENE) 14:42:11 437.375
ITUPSAT 1 07 Feb 14:49:57 14:54:17 34° 291° (WNW) 14:58:37 437.325
ITAMSAT 1 07 Feb 15:00:16 15:03:50 19° 267° (W) 15:07:26 435.822/435.867
BEESAT 07 Feb 15:00:33 15:04:32 27° 292° (WNW) 15:08:31 436.000
SO-50 07 Feb 15:18:11 15:22:09 27° 248° (WSW) 15:26:01 436.795
AO-7 07 Feb 15:19:18 15:27:31 60° 257° (WSW) 15:35:48 29.400- 29.500
MOZHAYETS 4 07 Feb 15:20:41 15:24:44 29° 96° (E) 15:28:45
ISS 07 Feb 15:26:53 15:29:16 19° 131° (SE) 15:31:40 145.825
Cosmos 2504 07 Feb 15:35:50 15:44:09 47° 75° (ENE) 15:51:55 435.465 / 435.565
STARS 07 Feb 15:37:04 15:41:24 61° 101° (ESE) 15:45:42 437.465
KKS-1 07 Feb 15:46:53 15:51:13 54° 287° (WNW) 15:55:31 437.445
M-CUBED/EXP-1 PRIME 07 Feb 15:49:45 15:52:27 19° 258° (WSW) 15:55:02 437.505
AUBIESAT-1 07 Feb 16:02:21 16:04:43 16° 259° (W) 16:07:01 437.475
YUBILEINY 07 Feb 16:10:51 16:17:41 26° 278° (W) 16:24:29 435.215
HORYU 2 07 Feb 16:11:14 16:15:12 33° 263° (W) 16:19:11 437.375
Cosmos 2491 07 Feb 16:12:12 16:20:29 47° 284° (WNW) 16:28:50 435.465 / 435.565
CUTE-I 07 Feb 16:17:40 16:21:41 22° 64° (ENE) 16:25:43 437.470
BRITE-PL 07 Feb 16:23:05 16:25:56 14° 62° (ENE) 16:28:45 437.365/2234.400
Cubesat XI-IV 07 Feb 16:29:57 16:34:26 29° 67° (ENE) 16:38:57 437.490
BEESAT 2 07 Feb 16:31:16 16:31:45 10° 107° (ESE) 16:32:13 435.950
RS-15 07 Feb 16:36:43 16:44:24 19° 1° (N) 16:52:17 29.354- 29.394
MOZHAYETS 4 07 Feb 16:57:56 17:01:47 26° 291° (WNW) 17:05:38
ISS 07 Feb 17:02:26 17:05:31 41° 327° (NNW) 17:08:38 145.825
STARS 07 Feb 17:15:29 17:17:14 12° 297° (WNW) 17:18:59 437.465
Cosmos 2504 07 Feb 17:29:40 17:37:13 35° 275° (W) 17:44:22 435.465 / 435.565
LilacSat-2 07 Feb 17:30:09 17:33:59 87° 261° (W) 17:37:49 437.200
CUBESAT XI-V 07 Feb 17:30:38 17:35:21 71° 101° (E) 17:40:01 437.345
DOVE 4 07 Feb 17:36:22 17:39:38 17° 66° (ENE) 17:42:48 437.250
GOMX 1 07 Feb 17:40:07 17:45:02 36° 71° (ENE) 17:49:49 467.674
BEESAT 3 07 Feb 17:45:36 17:49:34 66° 303° (WNW) 17:53:33 437.485
CUTE-I 07 Feb 17:56:18 18:01:23 46° 260° (W) 18:06:31 437.470
BRITE-PL 07 Feb 17:57:56 18:03:39 85° 256° (WSW) 18:09:19 437.365/2234.400
BEESAT 2 07 Feb 18:05:06 18:09:05 63° 303° (WNW) 18:13:06 435.950
AIST 2 07 Feb 18:05:09 18:06:28 11° 108° (ESE) 18:07:49 435.215
O/OREOS (USA 219) 07 Feb 18:07:11 18:11:47 81° 67° (ENE) 18:16:23 437.305
Cubesat XI-IV 07 Feb 18:09:33 18:14:22 35° 263° (W) 18:19:13 437.490
CUTE 1.7 + AOD 2 07 Feb 18:14:50 18:16:54 14° 65° (ENE) 18:19:00 437.475
HO-68 07 Feb 18:25:27 18:31:55 38° 64° (ENE) 18:38:24 435.675
SEEDS 07 Feb 18:25:50 18:27:53 13° 65° (ENE) 18:29:55 437.485
AO-85 07 Feb 18:37:38 18:41:50 24° 45° (NE) 18:45:46 145.980
PCSat 07 Feb 18:38:01 18:40:27 13° 41° (NE) 18:42:51 145.827
PRISM 07 Feb 18:40:42 18:41:57 11° 91° (E) 18:43:11 437.425
ISS 07 Feb 18:41:20 18:42:40 12° 346° (NNW) 18:43:59 145.825
AAUSAT CUBESAT 2 07 Feb 18:47:24 18:49:32 14° 65° (ENE) 18:51:41 437.432
